This demonstration page uses our WeatherBlox Daily Observations layout. Learn more.

Left ArrowRight Arrow

Hourly Observations for September 16, 2022

Temp ( °F °C ) Dew Point ( °F °C ) Humidity (%) Winds ( mph kmh ) Pressure ( in mb ) Visibility ( mi km ) Precip ( " mm )
12:08 am 00:08 Cloudy with Strong Thunderstorms 66 18.9 64 17.8 93 93 W 16 26 29.95 1014 2 3 0.17 4.32
12:22 am 00:22 Cloudy with Strong Thunderstorms 66 18.9 63 17.2 90 90 W 12 19 29.95 1014 2 3 0.29 7.37
12:26 am 00:26 Cloudy with Nearby Thunderstorms 66 18.9 63 17.2 90 90 WSW 13 20 29.96 1015 3 5 0.29 7.37
12:39 am 00:39 Cloudy with Nearby Thunderstorms 65 18.3 62 16.7 90 90 WSW 6 9 29.98 1015 3 4 0.40 10.16
12:53 am 00:53 Cloudy with Nearby Thunderstorms 65 18.3 62 16.7 90 90 undefined N/A 29.98 1015 2 2 0.57 14.48
1:02 am 01:02 Cloudy with Thunderstorms 64 17.8 62 16.7 93 93 WSW 6 9 29.97 1015 3 5 0.04 1.02
1:10 am 01:10 Cloudy with Thunderstorms 64 17.8 62 16.7 93 93 WSW 6 9 29.95 1014 3 4 0.10 2.54
1:19 am 01:19 Cloudy with Nearby Thunderstorms 66 18.9 63 17.2 90 90 W 6 9 29.93 1014 10 16 0.10 2.54
1:41 am 01:41 Cloudy 66 18.9 63 17.2 90 90 WSW 5 7 29.90 1013 10 16 0.10 2.54
1:53 am 01:53 Cloudy 66 18.9 63 17.2 90 90 SW 3 6 29.91 1013 10 16 0.10 2.54
2:53 am 02:53 Partly Cloudy 66 18.9 63 17.2 90 90 S 3 6 29.90 1013 10 16 0.00 0.00
3:53 am 03:53 Mostly Clear 66 18.9 64 17.8 93 93 NNW 5 7 29.90 1013 10 16 0.01 0.13
4:53 am 04:53 Clear 66 18.9 63 17.2 90 90 undefined N/A 29.89 1012 10 16 0.00 0.00
5:53 am 05:53 Clear 65 18.3 63 17.2 93 93 Calm 29.91 1013 10 16 0.00 0.00
6:53 am 06:53 Partly Cloudy 65 18.3 63 17.2 93 93 SSE 3 6 29.92 1013 9 14 0.00 0.00
7:53 am 07:53 Sunny 65 18.3 62 16.7 90 90 SSE 5 7 29.94 1014 9 14 0.00 0.00
8:53 am 08:53 Sunny 67 19.4 63 17.2 87 87 undefined N/A 29.96 1014 10 16 0.00 0.00
9:53 am 09:53 Sunny 72 22.2 64 17.8 76 76 VRB 5 7 29.95 1014 10 16 0.00 0.00
10:53 am 10:53 Sunny 73 22.8 61 16.1 66 66 VRB 6 9 29.96 1014 10 16 0.00 0.00
11:53 am 11:53 Sunny 76 24.4 61 16.1 60 60 S 12 19 29.94 1014 10 16 0.00 0.00
12:53 pm 12:53 Sunny 78 25.6 59 15 52 52 undefined N/A 29.93 1013 10 16 0.00 0.00
1:53 pm 13:53 Sunny 80 26.7 61 16.1 52 52 undefined N/A 29.91 1013 10 16 0.00 0.00
2:53 pm 14:53 Sunny 82 27.8 60 15.6 47 47 S 9 15 29.88 1012 10 16 0.00 0.00
3:53 pm 15:53 Sunny 83 28.3 60 15.6 46 46 SSE 8 13 29.86 1011 10 16 0.00 0.00
4:53 pm 16:53 Sunny 83 28.3 58 14.4 43 43 SSE 13 20 29.85 1011 10 16 0.00 0.00
5:53 pm 17:53 Sunny 83 28.3 59 15 44 44 S 12 19 29.85 1011 10 16 0.00 0.00
6:53 pm 18:53 Sunny 81 27.2 60 15.6 49 49 S 6 9 29.84 1011 10 16 0.00 0.00
7:53 pm 19:53 Clear 78 25.6 59 15 52 52 SSE 7 11 29.82 1010 10 16 0.00 0.00
8:53 pm 20:53 Clear 76 24.4 60 15.6 58 58 SSE 10 17 29.83 1010 10 16 0.00 0.00
9:53 pm 21:53 Clear 73 22.8 61 16.1 66 66 SSE 10 17 29.83 1010 10 16 0.00 0.00
10:53 pm 22:53 Clear 71 21.7 62 16.7 73 73 SSE 9 15 29.83 1010 10 16 0.00 0.00
11:53 pm 23:53 Clear 70 21.1 63 17.2 78 78 SSE 8 13 29.83 1010 10 16 0.00 0.00

Powered by AerisWeather